Back to catalog

STARLINK-34406

AliveCommunicationsVLEO
NORAD 64705·PAYLOAD·🇺🇸 United States

Launched Jun 28, 2025 from Vandenberg Space Force Base

Loading…

Next Passes (next 24 hours)

TLE

FreshSource: CelesTrak SupGP

Epoch: Sep 14, 2026, 21:43 UTC

1 64705C 25142K   26257.90534722 -.00014777  00000+0 -51384-3 0  2578
2 64705  70.0011 195.8997 0002945 269.0959 339.0029 15.29599586    17

Track STARLINK-34406 in real time with AllMySat

Download on the App Store